Stations météo

réclame
Mon MeteoGroup
Socoa, France (7600): Température de l'air & dewpoint: 12.08.2018 02:00:00 - 18.08.2018 02:00:00 (CEST)Socoa, France (7600): Vitesse du vent & gusts: 12.08.2018 02:00:00 - 18.08.2018 02:00:00 (CEST)Socoa, France (7600): Direction du vent: 12.08.2018 02:00:00 - 18.08.2018 02:00:00 (CEST)Socoa, France (7600): reduced air pressure: 12.08.2018 02:00:00 - 18.08.2018 02:00:00 (CEST)Socoa, France (7600): visibility: 12.08.2018 02:00:00 - 18.08.2018 02:00:00 (CEST)Socoa, France (7600): Quantités de précipitations: 12.08.2018 02:00:00 - 18.08.2018 02:00:00 (CEST)
Date & Time tt [°C] td [°C] ff [km/h] ff [knt] fx [km/h] fx [knt] dd ppp [hPa] vv [km] rr [mm]
18.08.2018 02:00:00 17,4 12,1 4 2 23 13 S 1025,1 - 0,0
18.08.2018 01:00:00 19,3 10,8 14 7 33 18 NNW 1025,3 - 0,0
18.08.2018 00:00:00 19,5 12,0 20 11 32 17 NNW 1025,0 - 0,0
17.08.2018 23:00:00 19,6 11,9 19 11 34 19 NNW 1024,9 15 0,0
17.08.2018 22:00:00 19,7 12,5 22 12 34 19 NNW 1024,6 - 0,0
17.08.2018 21:00:00 19,7 12,2 21 11 36 19 NNW 1024,3 - 0,0
17.08.2018 20:00:00 20,1 12,8 21 12 38 21 N 1024,0 25 0,0
17.08.2018 19:00:00 20,5 14,4 22 12 36 19 N 1023,9 - 0,0
17.08.2018 18:00:00 20,9 13,3 18 10 31 17 NNW 1023,9 - 0,0
17.08.2018 17:00:00 21,2 13,6 20 11 29 16 NW 1023,9 20 0,0
17.08.2018 16:00:00 21,8 12,9 22 12 36 19 NNW 1024,2 - 0,0
17.08.2018 15:00:00 21,6 13,2 23 12 51 28 NNW 1024,4 - 0,2
17.08.2018 14:00:00 20,5 14,2 28 15 44 24 N 1024,0 20 0,2
17.08.2018 13:00:00 18,8 15,5 27 15 36 19 N 1023,6 - 0,6
17.08.2018 12:00:00 18,9 17,4 10 5 16 9 WSW 1023,5 - 1,4
17.08.2018 11:00:00 19,1 16,9 7 4 41 22 SE 1023,0 4,5 1,2
17.08.2018 10:00:00 20,0 17,0 28 15 50 27 NE 1022,0 - 0,0
17.08.2018 09:00:00 19,3 16,0 36 19 61 33 NNE 1021,3 - 0,6
17.08.2018 08:00:00 19,5 17,8 22 12 40 21 N 1020,8 20 0,2
17.08.2018 07:00:00 19,5 18,2 21 11 38 21 NNW 1020,4 - 2,4
17.08.2018 06:00:00 20,4 18,2 24 13 35 19 W 1019,8 - 0,0
17.08.2018 05:00:00 19,7 16,7 16 9 24 13 SW 1019,9 20 0,0
17.08.2018 04:00:00 21,1 16,7 16 8 28 15 WSW 1020,2 - 0,0
17.08.2018 03:00:00 21,6 17,2 21 11 32 17 WNW 1020,1 - 0,0
17.08.2018 02:00:00 21,5 17,1 20 11 30 16 WNW 1020,0 20 0,0
17.08.2018 01:00:00 21,7 17,3 16 9 35 19 WNW 1020,0 - 0,0
17.08.2018 00:00:00 21,8 18,4 25 14 32 17 NW 1019,9 - 0,2
16.08.2018 23:00:00 21,2 18,6 7 4 22 12 W 1019,9 10 0,0
16.08.2018 22:00:00 22,2 18,8 14 8 24 13 NNW 1019,4 - 0,0
16.08.2018 21:00:00 22,2 18,8 16 9 27 15 NNW 1018,8 - 0,0
16.08.2018 20:00:00 22,5 19,1 19 10 34 18 NNW 1018,0 15 0,0
16.08.2018 19:00:00 22,6 19,4 29 16 43 23 NNW 1017,6 - 0,0
16.08.2018 18:00:00 23,1 20,1 27 15 32 17 NNW 1017,7 - 0,0
16.08.2018 17:00:00 22,7 19,5 27 15 31 17 NW 1017,4 15 0,0
16.08.2018 16:00:00 23,4 20,5 24 13 32 17 W 1017,5 - 0,0
16.08.2018 15:00:00 23,4 20,5 24 13 33 18 W 1017,6 - 0,0
16.08.2018 14:00:00 24,1 20,4 22 12 32 17 W 1017,6 12 0,0
16.08.2018 13:00:00 24,7 20,0 22 12 32 18 W 1017,7 - 0,0
16.08.2018 12:00:00 24,6 19,7 21 12 29 16 W 1017,6 - 0,0
16.08.2018 11:00:00 24,2 19,3 19 10 29 16 WSW 1017,4 15 0,0
16.08.2018 10:00:00 22,6 18,8 14 8 23 13 SW 1017,1 - 0,0
16.08.2018 09:00:00 20,4 18,3 14 7 21 12 SW 1016,8 - 0,0
16.08.2018 08:00:00 18,3 17,0 16 8 20 11 SSW 1016,6 - 0,0
16.08.2018 07:00:00 18,4 17,1 16 9 22 12 SSW 1016,4 - 0,0
16.08.2018 06:00:00 18,3 17,0 15 8 19 11 SSW 1016,3 - 0,0
16.08.2018 05:00:00 18,4 17,1 13 7 17 9 SSW 1016,4 18 0,0
16.08.2018 04:00:00 18,4 16,7 8 5 11 6 SSW 1016,6 - 0,0
16.08.2018 03:00:00 19,1 17,2 3 2 16 8 SW 1016,8 - 0,0
16.08.2018 02:00:00 19,9 18,0 13 7 22 12 SSW 1016,9 18 0,0
16.08.2018 01:00:00 20,2 18,1 14 8 20 11 SW 1017,2 - 0,0
16.08.2018 00:00:00 20,3 18,4 13 7 16 9 SW 1017,3 - 0,0
15.08.2018 23:00:00 21,0 18,8 9 5 12 6 WSW 1017,5 15 0,0
15.08.2018 22:00:00 22,4 19,6 8 4 20 11 NNE 1017,6 - 0,0
15.08.2018 21:00:00 23,1 18,8 14 7 25 14 NNE 1017,4 - 0,0
15.08.2018 20:00:00 24,3 18,9 17 9 33 18 NNE 1017,5 25 0,0
15.08.2018 19:00:00 24,8 19,0 24 13 39 21 NNE 1017,7 - 0,0
15.08.2018 18:00:00 24,4 18,8 35 19 40 22 NNE 1018,0 - 0,0
15.08.2018 17:00:00 24,2 18,6 28 15 36 20 N 1018,5 25 0,0
15.08.2018 16:00:00 24,5 18,4 29 16 40 22 N 1018,9 - 0,0
15.08.2018 15:00:00 28,0 18,4 17 9 33 18 ENE 1019,3 - 0,0
15.08.2018 14:00:00 26,1 18,5 16 9 29 15 ENE 1019,9 25 0,0
15.08.2018 13:00:00 23,8 17,5 21 11 25 14 N 1020,6 - 0,0
15.08.2018 12:00:00 24,0 16,5 14 7 21 12 N 1021,1 - 0,0
15.08.2018 11:00:00 24,1 17,1 11 6 18 10 NNE 1021,4 - 0,0
15.08.2018 10:00:00 21,9 16,2 10 5 16 8 E 1021,4 - 0,0
15.08.2018 09:00:00 19,0 16,6 6 4 9 5 E 1021,7 - 0,0
15.08.2018 08:00:00 16,6 15,1 5 3 9 5 SE 1021,7 20 0,0
15.08.2018 07:00:00 16,6 14,6 6 4 14 8 SE 1021,7 - 0,0
15.08.2018 06:00:00 17,7 15,7 11 6 16 9 ESE 1022,0 - 0,0
15.08.2018 05:00:00 17,9 15,3 8 4 17 9 SE 1022,4 - 0,0
15.08.2018 04:00:00 18,4 16,0 10 5 15 8 ESE 1022,7 - 0,0
15.08.2018 03:00:00 18,0 15,6 3 1 13 7 S 1023,0 - 0,0
15.08.2018 02:00:00 18,8 16,4 5 3 13 7 SSE 1023,2 - 0,0
15.08.2018 01:00:00 19,3 16,5 4 2 10 5 SE 1023,2 - 0,0
15.08.2018 00:00:00 20,3 16,1 4 2 20 11 SSE 1023,3 - 0,0
14.08.2018 23:00:00 21,2 16,4 14 8 22 12 N 1023,3 25 0,0
14.08.2018 22:00:00 21,3 16,3 13 7 24 13 N 1023,0 - 0,0
14.08.2018 21:00:00 21,9 16,4 12 6 22 12 NNW 1022,6 - 0,0
14.08.2018 20:00:00 23,0 16,5 13 7 26 14 NNW 1022,4 25 0,0
14.08.2018 19:00:00 23,9 16,9 18 10 26 14 NNW 1022,5 - 0,0
14.08.2018 18:00:00 23,0 16,5 19 10 29 16 NNW 1022,6 - 0,0
14.08.2018 17:00:00 23,2 16,3 19 11 26 14 NNW 1022,9 25 0,0
14.08.2018 16:00:00 24,1 16,4 20 11 27 14 NW 1022,8 - 0,0
14.08.2018 15:00:00 24,2 16,7 20 11 29 15 NW 1022,8 - 0,0
14.08.2018 14:00:00 24,2 16,7 20 11 27 15 NW 1022,7 25 0,0
14.08.2018 13:00:00 23,8 15,8 20 11 30 16 NNW 1022,7 - 0,0
14.08.2018 12:00:00 23,4 17,4 18 10 33 18 NNW 1022,4 - 0,4
14.08.2018 11:00:00 22,3 16,3 18 10 31 17 NNW 1022,1 25 0,0
14.08.2018 10:00:00 20,9 16,9 9 5 19 10 WSW 1021,5 - 0,0
14.08.2018 09:00:00 20,1 16,7 12 6 25 13 SW 1021,4 - 0,0
14.08.2018 08:00:00 20,5 15,9 16 8 34 18 WNW 1021,0 - 0,0
14.08.2018 07:00:00 21,0 16,4 22 12 33 18 NW 1020,3 - 0,0
14.08.2018 06:00:00 20,9 16,5 25 13 37 20 NW 1019,8 - 0,0
14.08.2018 05:00:00 18,9 16,9 13 7 27 15 SW 1019,8 20 0,0
14.08.2018 04:00:00 18,8 16,6 14 7 29 16 WSW 1019,9 - 0,0
14.08.2018 03:00:00 19,4 16,8 16 9 29 16 SW 1019,7 - 0,0
14.08.2018 02:00:00 19,3 17,6 19 11 26 14 SW 1020,0 - 0,0
14.08.2018 01:00:00 19,6 17,7 16 9 33 18 SW 1019,8 15 0,0
14.08.2018 00:00:00 20,0 18,1 28 15 37 20 NW 1019,5 15 0,0
13.08.2018 23:00:00 20,0 18,1 16 9 43 23 W 1019,4 15 0,0
13.08.2018 22:00:00 21,0 17,4 28 15 39 21 W 1018,6 - 0,0
13.08.2018 21:00:00 20,7 17,7 26 14 45 24 W 1018,3 - 0,0
13.08.2018 20:00:00 21,8 17,6 29 16 41 22 WNW 1017,9 18 0,0
13.08.2018 19:00:00 22,3 17,9 29 16 39 21 WNW 1017,8 - 0,0
13.08.2018 18:00:00 22,2 18,0 32 17 42 23 W 1017,7 - 0,0
13.08.2018 17:00:00 22,1 17,7 31 17 40 22 W 1017,5 - 0,0
13.08.2018 16:00:00 20,9 18,3 26 14 43 23 W 1017,6 - 0,0
13.08.2018 15:00:00 20,9 18,7 22 12 36 19 W 1017,4 - 0,0
13.08.2018 14:00:00 21,0 18,9 16 8 28 15 WSW 1017,7 10 0,0
13.08.2018 13:00:00 20,6 18,5 16 9 30 16 WSW 1017,7 - 0,0
13.08.2018 12:00:00 20,2 18,3 14 8 37 20 SW 1017,4 - 0,0
13.08.2018 11:00:00 20,4 18,2 18 10 26 14 WSW 1016,9 15 0,0
13.08.2018 10:00:00 19,8 18,5 16 9 33 18 W 1016,5 - 0,0
13.08.2018 09:00:00 19,8 18,6 15 8 40 21 W 1016,1 - 0,0
13.08.2018 08:00:00 20,4 18,9 15 8 27 15 W 1015,7 - 0,0
13.08.2018 07:00:00 21,0 18,9 19 10 30 16 WNW 1015,1 - 0,0
13.08.2018 06:00:00 20,4 17,8 10 5 17 9 SW 1015,0 - 0,0
13.08.2018 05:00:00 20,1 17,3 6 4 10 6 WSW 1014,9 20 0,0
13.08.2018 04:00:00 19,8 16,8 8 4 14 8 S 1015,1 - 0,0
13.08.2018 03:00:00 19,6 17,0 6 4 10 6 S 1015,3 - 0,0
13.08.2018 02:00:00 19,2 16,6 6 4 13 7 S 1015,6 18 0,0
13.08.2018 01:00:00 19,9 17,9 10 5 15 8 S 1015,4 - 0,0
13.08.2018 00:00:00 20,8 18,4 9 5 14 8 S 1016,0 - 0,0
12.08.2018 23:00:00 21,8 18,8 11 6 21 12 SW 1016,1 18 0,0
12.08.2018 22:00:00 22,4 18,8 18 10 26 14 WSW 1016,1 - 0,0
12.08.2018 21:00:00 22,8 18,6 16 9 27 14 WSW 1015,2 - 0,0
12.08.2018 20:00:00 23,4 19,3 19 11 35 19 WSW 1014,9 18 0,0
12.08.2018 19:00:00 23,2 19,6 28 15 37 20 W 1014,8 - 0,0
12.08.2018 18:00:00 24,8 20,3 27 15 34 18 W 1014,0 - 0,0
12.08.2018 17:00:00 24,3 20,0 23 12 30 16 W 1014,3 - 0,0
12.08.2018 16:00:00 24,7 20,2 18 10 29 16 WNW 1014,7 - 0,0
12.08.2018 15:00:00 25,6 20,6 17 9 25 13 WNW 1015,0 - 0,0
12.08.2018 14:00:00 25,2 20,7 18 10 24 13 NW 1014,9 20 0,0
12.08.2018 13:00:00 25,8 20,8 17 9 21 11 NW 1015,2 - 0,0
12.08.2018 12:00:00 26,0 20,6 8 5 14 7 NW 1015,3 - 0,0
12.08.2018 11:00:00 25,8 20,6 9 5 12 6 NW 1015,4 - 0,0
12.08.2018 10:00:00 23,9 20,0 9 5 15 8 W 1015,6 - 0,0
12.08.2018 09:00:00 21,5 19,6 0 0 6 3 N 1015,5 - 0,0
12.08.2018 08:00:00 19,5 18,3 5 3 9 5 SSW 1015,5 - 0,0
12.08.2018 07:00:00 19,3 18,1 7 4 12 7 S 1015,4 - 0,0
12.08.2018 06:00:00 19,5 18,2 10 5 11 6 S 1015,8 - 0,0
12.08.2018 05:00:00 19,7 18,2 8 5 10 5 SSW 1016,1 - 0,0
12.08.2018 04:00:00 20,0 18,1 0 0 11 6 N 1016,8 - 0,0
12.08.2018 03:00:00 20,6 18,5 9 5 19 10 SW 1017,4 - 0,0
12.08.2018 02:00:00 21,3 19,0 16 9 23 13 WSW 1018,1 20 0,0

tt = Température de l'air
td = dewpoint
ff = Vitesse du vent
fx = gusts
dd = Direction du vent
ppp = reduced air pressure
vv = visibility
rr = Quantités de précipitations

stations d'obs. à proximité